Location: Shenandoah County Park
(38.9356°N, 78.4524°W)
Time: 14:59:26
(UTC-05:00)

Vanguard 2 Rocket - Pass Details

Date: 09 December 2023
Orbit: 555 x 3309 km, 32.9° (Epoch: 03 March)

Event Time Altitude Azimuth Distance (km) Brightness Sun altitude
Rises 10:27:55 0° 188° (S) 4,768 11.5 24.1°
Reaches altitude 10° 10:31:56 10° 172° (S) 4,230 11.9 24.4°
Maximum altitude 10:39:53 20° 130° (SE) 4,225 11.7 25.0°
Drops below altitude 10° 10:50:20 10° 92° (E) 5,777 11.3 25.7°
Sets 10:57:16 0° 79° (E) 7,121 11.5 26.2°
